TimeCST,TemperatureF,Dew PointF,Humidity,Sea Level PressureIn,VisibilityMPH,Wind Direction,Wind SpeedMPH,Gust SpeedMPH,PrecipitationIn,Events,Conditions,WindDirDegrees,DateUTC
12:56 AM,42.1,39.0,89,30.33,10.0,North,4.6,-,N/A,,Clear,10,2012-11-29 06:56:00
1:56 AM,43.0,39.9,89,30.34,10.0,NNE,5.8,-,N/A,,Clear,20,2012-11-29 07:56:00
2:56 AM,43.0,41.0,93,30.33,10.0,North,4.6,-,N/A,,Clear,10,2012-11-29 08:56:00
3:56 AM,42.1,41.0,96,30.32,8.0,North,4.6,-,N/A,,Clear,10,2012-11-29 09:56:00
4:56 AM,42.1,41.0,96,30.33,7.0,North,3.5,-,0.00,,Clear,10,2012-11-29 10:56:00
5:56 AM,42.1,41.0,96,30.34,6.0,NNE,5.8,-,0.00,,Clear,30,2012-11-29 11:56:00
6:23 AM,42.8,42.8,100,30.34,2.0,NNE,8.1,-,N/A,,Scattered Clouds,30,2012-11-29 12:23:00
6:56 AM,44.1,43.0,96,30.35,2.0,NNE,6.9,-,N/A,,Partly Cloudy,30,2012-11-29 12:56:00
7:40 AM,46.4,44.6,93,30.35,3.0,North,4.6,-,N/A,,Mostly Cloudy,10,2012-11-29 13:40:00
7:56 AM,46.9,45.0,93,30.36,3.0,North,5.8,-,N/A,,Mostly Cloudy,10,2012-11-29 13:56:00
8:56 AM,52.0,46.9,83,30.38,10.0,NNE,6.9,-,N/A,,Mostly Cloudy,20,2012-11-29 14:56:00
9:56 AM,55.0,46.9,74,30.38,10.0,NE,8.1,-,N/A,,Mostly Cloudy,50,2012-11-29 15:56:00
10:35 AM,57.2,46.4,67,30.37,10.0,ENE,10.4,-,N/A,,Mostly Cloudy,60,2012-11-29 16:35:00
10:56 AM,57.9,46.9,67,30.37,10.0,ENE,11.5,-,N/A,,Mostly Cloudy,70,2012-11-29 16:56:00
11:56 AM,61.0,48.9,64,30.34,10.0,ENE,8.1,-,N/A,,Mostly Cloudy,60,2012-11-29 17:56:00
12:56 PM,62.1,50.0,65,30.30,10.0,East,6.9,-,N/A,,Partly Cloudy,80,2012-11-29 18:56:00
1:56 PM,63.0,50.0,63,30.29,10.0,East,5.8,-,N/A,,Scattered Clouds,90,2012-11-29 19:56:00
2:56 PM,63.0,48.9,60,30.28,10.0,East,8.1,-,N/A,,Partly Cloudy,90,2012-11-29 20:56:00
3:56 PM,61.0,48.9,64,30.28,10.0,East,8.1,-,N/A,,Partly Cloudy,80,2012-11-29 21:56:00
4:56 PM,55.0,48.0,77,30.28,10.0,ENE,4.6,-,N/A,,Scattered Clouds,70,2012-11-29 22:56:00
5:56 PM,53.1,48.9,86,30.29,10.0,ENE,4.6,-,N/A,,Scattered Clouds,70,2012-11-29 23:56:00
6:56 PM,50.0,48.0,93,30.29,10.0,North,3.5,-,N/A,,Clear,350,2012-11-30 00:56:00
7:56 PM,46.9,46.0,97,30.31,9.0,Calm,Calm,-,N/A,,Scattered Clouds,0,2012-11-30 01:56:00
8:56 PM,52.0,48.0,86,30.31,10.0,NNE,3.5,-,N/A,,Mostly Cloudy,20,2012-11-30 02:56:00
9:56 PM,51.1,48.0,89,30.30,10.0,NE,5.8,-,N/A,,Scattered Clouds,40,2012-11-30 03:56:00
10:56 PM,50.0,48.0,93,30.29,10.0,North,3.5,-,N/A,,Partly Cloudy,360,2012-11-30 04:56:00
11:56 PM,51.1,48.0,89,30.28,10.0,NNE,3.5,-,N/A,,Clear,20,2012-11-30 05:56:00